| time (UTC) | temp F | wind direction | speed knots | gust knots | rain 1hr in | rain 24hr in | rain mn in | humidity % | barometer mb |
| 20260508100541 | 52 | 277 | 0.0 | 0.0 | 0.00 | 0.00 | 0.00 | 83 | 1010.4 |
| 20260508100038 | 52 | 99 | 0.0 | 0.9 | 0.00 | 0.00 | 0.00 | 83 | 1010.4 |
| 20260508095535 | 52 | 90 | 0.0 | 0.0 | 0.00 | 0.00 | 0.00 | 83 | 1010.7 |
| 20260508095032 | 52 | 90 | 0.0 | 0.9 | 0.00 | 0.00 | 0.00 | 83 | 1010.8 |
| 20260508094529 | 53 | 345 | 0.0 | 0.9 | 0.00 | 0.00 | 0.00 | 82 | 1010.8 |
| 20260508094026 | 53 | 169 | 0.9 | 0.9 | 0.00 | 0.00 | 0.00 | 82 | 1010.3 |
| 20260508093523 | 53 | 105 | 0.0 | 1.7 | 0.00 | 0.00 | 0.00 | 82 | 1010.7 |
| 20260508093021 | 53 | 287 | 0.0 | 1.7 | 0.00 | 0.00 | 0.00 | 81 | 1010.8 |
| 20260508092518 | 53 | 132 | 1.7 | 1.7 | 0.00 | 0.00 | 0.00 | 81 | 1010.8 |
| 20260508092017 | 53 | 148 | 0.0 | 2.6 | 0.00 | 0.00 | 0.00 | 81 | 1010.8 |
| 20260508091513 | 54 | 139 | 1.7 | 3.5 | 0.00 | 0.00 | 0.00 | 81 | 1010.6 |
| 20260508091010 | 53 | 41 | 0.0 | 1.7 | 0.00 | 0.00 | 0.00 | 80 | 1010.7 |
| 20260508090508 | 54 | 105 | 0.0 | 1.7 | 0.00 | 0.00 | 0.00 | 80 | 1010.7 |
| 20260508090005 | 54 | 117 | 0.0 | 1.7 | 0.00 | 0.00 | 0.00 | 80 | 1010.9 |
| 20260508085501 | 54 | 111 | 0.0 | 1.7 | 0.00 | 0.00 | 0.00 | 79 | 1010.9 |
| 20260508084958 | 55 | 90 | 0.9 | 2.6 | 0.00 | 0.00 | 0.00 | 78 | 1010.4 |
| 20260508084454 | 55 | 151 | 1.7 | 2.6 | 0.00 | 0.00 | 0.00 | 78 | 1010.7 |
| 20260508083952 | 56 | 124 | 0.0 | 1.7 | 0.00 | 0.00 | 0.00 | 77 | 1010.9 |
| 20260508083449 | 56 | 246 | 0.0 | 2.6 | 0.00 | 0.00 | 0.00 | 77 | 1011.1 |
| 20260508082944 | 56 | 154 | 0.0 | 2.6 | 0.00 | 0.00 | 0.00 | 76 | 1010.9 |
| 20260508082442 | 57 | 123 | 0.0 | 2.6 | 0.00 | 0.00 | 0.00 | 76 | 1010.9 |
| 20260508081939 | 57 | 139 | 1.7 | 2.6 | 0.00 | 0.00 | 0.00 | 75 | 1011.1 |
| 20260508081436 | 57 | 174 | 0.9 | 2.6 | 0.00 | 0.00 | 0.00 | 75 | 1011.1 |
| 20260508080932 | 57 | 180 | 0.9 | 1.7 | 0.00 | 0.00 | 0.00 | 75 | 1011.1 |
| 20260508080430 | 57 | 131 | 1.7 | 2.6 | 0.00 | 0.00 | 0.00 | 74 | 1011.0 |
| 20260508075927 | 58 | 107 | 3.5 | 3.5 | 0.00 | 0.00 | 0.00 | 73 | 1011.1 |
| 20260508075424 | 58 | 112 | 1.7 | 3.5 | 0.00 | 0.00 | 0.00 | 73 | 1011.0 |
| 20260508074922 | 58 | 110 | 1.7 | 2.6 | 0.00 | 0.00 | 0.00 | 72 | 1011.0 |
| 20260508074419 | 59 | 117 | 2.6 | 4.3 | 0.00 | 0.00 | 0.00 | 71 | 1011.1 |
| 20260508073915 | 59 | 150 | 4.3 | 7.0 | 0.00 | 0.00 | 0.00 | 70 | 1011.0 |
| 20260508073413 | 60 | 159 | 3.5 | 8.7 | 0.00 | 0.00 | 0.00 | 70 | 1011.0 |
| 20260508072910 | 60 | 173 | 4.3 | 6.1 | 0.00 | 0.00 | 0.00 | 69 | 1011.4 |
| 20260508072406 | 60 | 179 | 3.5 | 6.1 | 0.00 | 0.00 | 0.00 | 69 | 1011.3 |
| 20260508071904 | 60 | 157 | 3.5 | 5.2 | 0.00 | 0.00 | 0.00 | 69 | 1011.5 |
| 20260508071402 | 60 | 164 | 4.3 | 5.2 | 0.00 | 0.00 | 0.00 | 68 | 1011.3 |
| 20260508070859 | 60 | 180 | 2.6 | 5.2 | 0.00 | 0.00 | 0.00 | 68 | 1011.3 |
| 20260508070357 | 61 | 175 | 0.9 | 5.2 | 0.00 | 0.00 | 0.00 | 67 | 1011.6 |
| 20260508065854 | 61 | 180 | 3.5 | 4.3 | 0.00 | 0.00 | 0.00 | 66 | 1011.6 |
| 20260508065352 | 61 | 148 | 2.6 | 7.0 | 0.00 | 0.00 | 0.00 | 66 | 1011.6 |
| 20260508064850 | 61 | 166 | 3.5 | 6.1 | 0.00 | 0.00 | 0.00 | 66 | 1011.5 |
| 20260508064347 | 62 | 180 | 4.3 | 7.8 | 0.00 | 0.00 | 0.00 | 65 | 1011.5 |
| 20260508063845 | 62 | 145 | 5.2 | 9.6 | 0.00 | 0.00 | 0.00 | 65 | 1011.6 |
| 20260508063343 | 62 | 170 | 2.6 | 8.7 | 0.00 | 0.00 | 0.00 | 64 | 1011.8 |
| 20260508062839 | 62 | 152 | 5.2 | 7.8 | 0.00 | 0.00 | 0.00 | 64 | 1011.4 |
| 20260508062337 | 63 | 183 | 4.3 | 11.3 | 0.00 | 0.00 | 0.00 | 63 | 1011.5 |
| 20260508061834 | 63 | 155 | 4.3 | 8.7 | 0.00 | 0.00 | 0.00 | 63 | 1011.3 |
| 20260508061332 | 63 | 191 | 5.2 | 7.8 | 0.00 | 0.00 | 0.00 | 62 | 1011.5 |
| 20260508060828 | 63 | 162 | 6.1 | 10.4 | 0.00 | 0.00 | 0.00 | 62 | 1011.5 |
| 20260508060326 | 63 | 156 | 7.0 | 10.4 | 0.00 | 0.00 | 0.00 | 61 | 1011.2 |
| 20260508055820 | 63 | 192 | 4.3 | 12.2 | 0.00 | 0.00 | 0.00 | 60 | 1011.3 |
| 20260508055318 | 64 | 194 | 3.5 | 10.4 | 0.00 | 0.00 | 0.00 | 60 | 1011.3 |
| 20260508054815 | 64 | 175 | 7.0 | 10.4 | 0.00 | 0.00 | 0.00 | 59 | 1011.3 |
| 20260508054312 | 64 | 155 | 11.3 | 11.3 | 0.00 | 0.00 | 0.00 | 59 | 1011.1 |
| 20260508053809 | 64 | 116 | 5.2 | 9.6 | 0.00 | 0.00 | 0.00 | 59 | 1011.3 |
| 20260508053306 | 64 | 159 | 4.3 | 9.6 | 0.00 | 0.00 | 0.00 | 59 | 1011.3 |
| 20260508052804 | 64 | 185 | 2.6 | 9.6 | 0.00 | 0.00 | 0.00 | 59 | 1011.2 |
| 20260508052301 | 64 | 187 | 2.6 | 9.6 | 0.00 | 0.00 | 0.00 | 58 | 1011.2 |
| 20260508051757 | 64 | 155 | 4.3 | 9.6 | 0.00 | 0.00 | 0.00 | 57 | 1011.2 |
| 20260508051252 | 65 | 159 | 7.0 | 12.2 | 0.00 | 0.00 | 0.00 | 57 | 1011.3 |
| 20260508050749 | 65 | 180 | 5.2 | 10.4 | 0.00 | 0.00 | 0.00 | 56 | 1011.3 |
| 20260508050246 | 65 | 179 | 4.3 | 13.9 | 0.00 | 0.00 | 0.00 | 56 | 1011.3 |
| 20260508045742 | 65 | 192 | 6.1 | 9.6 | 0.00 | 0.00 | 0.00 | 56 | 1011.4 |
| 20260508045240 | 66 | 192 | 6.1 | 11.3 | 0.00 | 0.00 | 0.00 | 56 | 1011.4 |
| 20260508044737 | 65 | 196 | 9.6 | 10.4 | 0.00 | 0.00 | 0.00 | 56 | 1011.6 |
| 20260508044234 | 65 | 179 | 3.5 | 9.6 | 0.00 | 0.00 | 0.00 | 55 | 1011.3 |
| 20260508043730 | 65 | 168 | 1.7 | 7.8 | 0.00 | 0.00 | 0.00 | 55 | 1011.6 |
| 20260508043227 | 65 | 198 | 2.6 | 9.6 | 0.00 | 0.00 | 0.00 | 55 | 1011.5 |
| 20260508042724 | 65 | 154 | 7.0 | 11.3 | 0.00 | 0.00 | 0.00 | 54 | 1011.8 |
| 20260508042221 | 65 | 177 | 4.3 | 7.8 | 0.00 | 0.00 | 0.00 | 55 | 1011.3 |
| 20260508041718 | 64 | 171 | 4.3 | 6.1 | 0.00 | 0.00 | 0.00 | 54 | 1011.8 |
| 20260508041215 | 64 | 117 | 3.5 | 6.1 | 0.00 | 0.00 | 0.00 | 54 | 1011.5 |
| 20260508040711 | 64 | 178 | 2.6 | 3.5 | 0.00 | 0.00 | 0.00 | 54 | 1011.6 |
| 20260508040208 | 65 | 155 | 2.6 | 2.6 | 0.00 | 0.00 | 0.00 | 53 | 1011.3 |
| 20260508035706 | 65 | 166 | 1.7 | 2.6 | 0.00 | 0.00 | 0.00 | 53 | 1011.6 |
| 20260508035203 | 66 | 156 | 1.7 | 3.5 | 0.00 | 0.00 | 0.00 | 52 | 1011.6 |
| 20260508034659 | 65 | 180 | 1.7 | 3.5 | 0.00 | 0.00 | 0.00 | 52 | 1011.5 |
| 20260508034156 | 65 | 186 | 0.9 | 1.7 | 0.00 | 0.00 | 0.00 | 53 | 1011.8 |
| 20260508033653 | 65 | 169 | 1.7 | 2.6 | 0.00 | 0.00 | 0.00 | 53 | 1011.3 |
| 20260508033152 | 65 | 165 | 0.9 | 1.7 | 0.00 | 0.00 | 0.00 | 52 | 1011.4 |
| 20260508032649 | 65 | 132 | 0.0 | 1.7 | 0.00 | 0.00 | 0.00 | 52 | 1011.3 |
| 20260508032146 | 66 | 236 | 1.7 | 2.6 | 0.00 | 0.00 | 0.00 | 51 | 1011.2 |
| 20260508031643 | 66 | 206 | 1.7 | 3.5 | 0.00 | 0.00 | 0.00 | 51 | 1011.2 |
| 20260508031139 | 66 | 151 | 2.6 | 3.5 | 0.00 | 0.00 | 0.00 | 51 | 1011.2 |
| 20260508030635 | 66 | 153 | 2.6 | 4.3 | 0.00 | 0.00 | 0.00 | 51 | 1011.0 |
| 20260508030133 | 66 | 183 | 2.6 | 4.3 | 0.00 | 0.00 | 0.00 | 51 | 1011.0 |
| 20260508025629 | 66 | 152 | 2.6 | 4.3 | 0.00 | 0.00 | 0.00 | 50 | 1010.9 |
| 20260508025127 | 66 | 151 | 2.6 | 3.5 | 0.00 | 0.00 | 0.00 | 50 | 1010.9 |
| 20260508024622 | 66 | 156 | 1.7 | 4.3 | 0.00 | 0.00 | 0.00 | 50 | 1011.1 |
| 20260508024120 | 67 | 159 | 2.6 | 3.5 | 0.00 | 0.00 | 0.00 | 49 | 1011.0 |
| 20260508023616 | 67 | 148 | 0.0 | 2.6 | 0.00 | 0.00 | 0.00 | 50 | 1010.9 |
| 20260508023114 | 67 | 104 | 2.6 | 2.6 | 0.00 | 0.00 | 0.00 | 49 | 1010.8 |
| 20260508022609 | 67 | 144 | 0.0 | 2.6 | 0.00 | 0.00 | 0.00 | 48 | 1010.6 |
| 20260508022107 | 68 | 157 | 0.9 | 2.6 | 0.00 | 0.00 | 0.00 | 47 | 1010.8 |
| 20260508021602 | 68 | 152 | 1.7 | 2.6 | 0.00 | 0.00 | 0.00 | 47 | 1010.9 |
| 20260508021058 | 69 | 135 | 1.7 | 3.5 | 0.00 | 0.00 | 0.00 | 46 | 1010.4 |
| 20260508020556 | 69 | 157 | 4.3 | 6.1 | 0.00 | 0.00 | 0.00 | 45 | 1010.6 |
| 20260508020054 | 70 | 180 | 2.6 | 7.0 | 0.00 | 0.00 | 0.00 | 44 | 1010.4 |
| 20260508015551 | 70 | 163 | 5.2 | 8.7 | 0.00 | 0.00 | 0.00 | 43 | 1010.6 |
| 20260508015048 | 70 | 147 | 3.5 | 9.6 | 0.00 | 0.00 | 0.00 | 42 | 1010.1 |
| 20260508014544 | 71 | 172 | 6.1 | 8.7 | 0.00 | 0.00 | 0.00 | 42 | 1010.2 |
| 20260508014040 | 71 | 155 | 4.3 | 11.3 | 0.00 | 0.00 | 0.00 | 42 | 1010.1 |
| 20260508013536 | 71 | 161 | 7.8 | 11.3 | 0.00 | 0.00 | 0.00 | 41 | 1010.1 |
| 20260508013034 | 71 | 151 | 5.2 | 13.0 | 0.00 | 0.00 | 0.00 | 41 | 1010.2 |
| 20260508012531 | 72 | 154 | 7.0 | 13.0 | 0.00 | 0.00 | 0.00 | 41 | 1010.0 |
| 20260508012028 | 72 | 156 | 7.8 | 13.0 | 0.00 | 0.00 | 0.00 | 40 | 1010.2 |
| 20260508011527 | 72 | 164 | 6.1 | 11.3 | 0.00 | 0.00 | 0.00 | 40 | 1010.1 |
| 20260508011023 | 73 | 172 | 9.6 | 13.0 | 0.00 | 0.00 | 0.00 | 40 | 1010.2 |
| 20260508010520 | 73 | 161 | 10.4 | 11.3 | 0.00 | 0.00 | 0.00 | 39 | 1010.1 |
| 20260508010018 | 73 | 179 | 6.1 | 11.3 | 0.00 | 0.00 | 0.00 | 38 | 1010.3 |
| 20260508005514 | 73 | 181 | 7.8 | 10.4 | 0.00 | 0.00 | 0.00 | 38 | 1010.2 |
| 20260508005011 | 74 | 183 | 6.1 | 11.3 | 0.00 | 0.00 | 0.00 | 38 | 1010.2 |
| 20260508004507 | 74 | 183 | 4.3 | 8.7 | 0.00 | 0.00 | 0.00 | 37 | 1010.3 |
| 20260508004004 | 75 | 190 | 2.6 | 8.7 | 0.00 | 0.00 | 0.00 | 37 | 1010.3 |
| 20260508003500 | 75 | 200 | 2.6 | 14.8 | 0.00 | 0.00 | 0.00 | 36 | 1010.2 |
| 20260508002958 | 75 | 178 | 7.8 | 9.6 | 0.00 | 0.00 | 0.00 | 36 | 1010.4 |
| 20260508002454 | 75 | 166 | 7.0 | 9.6 | 0.00 | 0.00 | 0.00 | 35 | 1010.2 |
| 20260508001950 | 75 | 178 | 7.0 | 9.6 | 0.00 | 0.00 | 0.00 | 36 | 1010.3 |
| 20260508001446 | 75 | 162 | 6.1 | 9.6 | 0.00 | 0.00 | 0.00 | 36 | 1010.2 |
| 20260508000943 | 76 | 179 | 4.3 | 9.6 | 0.00 | 0.00 | 0.00 | 35 | 1010.6 |
| 20260508000439 | 76 | 168 | 0.9 | 9.6 | 0.00 | 0.00 | 0.00 | 35 | 1010.3 |
| 20260507235936 | 76 | 226 | 0.0 | 8.7 | 0.00 | 0.00 | 0.00 | 35 | 1010.7 |
| 20260507235433 | 76 | 154 | 1.7 | 6.1 | 0.00 | 0.00 | 0.00 | 34 | 1010.3 |
| 20260507234931 | 76 | 166 | 6.1 | 9.6 | 0.00 | 0.00 | 0.00 | 34 | 1010.4 |
| 20260507234427 | 76 | 179 | 5.2 | 7.8 | 0.00 | 0.00 | 0.00 | 34 | 1010.3 |
| 20260507233923 | 76 | 147 | 2.6 | 12.2 | 0.00 | 0.00 | 0.00 | 34 | 1010.6 |
| 20260507233420 | 76 | 166 | 5.2 | 9.6 | 0.00 | 0.00 | 0.00 | 34 | 1010.4 |
| 20260507232919 | 76 | 175 | 6.1 | 9.6 | 0.00 | 0.00 | 0.00 | 34 | 1010.6 |
| 20260507232415 | 75 | 171 | 8.7 | 9.6 | 0.00 | 0.00 | 0.00 | 33 | 1010.4 |
| 20260507231912 | 76 | 159 | 4.3 | 7.8 | 0.00 | 0.00 | 0.00 | 34 | 1010.6 |
| 20260507231409 | 76 | 169 | 5.2 | 6.1 | 0.00 | 0.00 | 0.00 | 34 | 1010.6 |
| 20260507230905 | 75 | 155 | 2.6 | 8.7 | 0.00 | 0.00 | 0.00 | 35 | 1010.6 |
| 20260507230403 | 75 | 181 | 5.2 | 9.6 | 0.00 | 0.00 | 0.00 | 34 | 1010.9 |
| 20260507225902 | 75 | 195 | 4.3 | 10.4 | 0.00 | 0.00 | 0.00 | 34 | 1010.8 |
| 20260507225359 | 75 | 181 | 4.3 | 6.1 | 0.00 | 0.00 | 0.00 | 34 | 1010.8 |
| 20260507224855 | 75 | 158 | 5.2 | 13.0 | 0.00 | 0.00 | 0.00 | 33 | 1010.9 |
| 20260507224351 | 75 | 189 | 5.2 | 9.6 | 0.00 | 0.00 | 0.00 | 34 | 1010.9 |
| 20260507223848 | 75 | 159 | 7.8 | 9.6 | 0.00 | 0.00 | 0.00 | 33 | 1011.2 |
| 20260507223344 | 75 | 182 | 3.5 | 7.8 | 0.00 | 0.00 | 0.00 | 33 | 1011.2 |
| 20260507222841 | 75 | 171 | 7.0 | 9.6 | 0.00 | 0.00 | 0.00 | 34 | 1011.3 |
| 20260507222337 | 76 | 174 | 3.5 | 7.8 | 0.00 | 0.00 | 0.00 | 34 | 1011.4 |
| 20260507221835 | 75 | 155 | 2.6 | 8.7 | 0.00 | 0.00 | 0.00 | 34 | 1011.4 |
| 20260507221331 | 75 | 157 | 5.2 | 9.6 | 0.00 | 0.00 | 0.00 | 34 | 1011.4 |
| 20260507220827 | 75 | 223 | 3.5 | 7.8 | 0.00 | 0.00 | 0.00 | 35 | 1011.5 |
| 20260507220326 | 75 | 177 | 2.6 | 9.6 | 0.00 | 0.00 | 0.00 | 35 | 1011.6 |
| 20260507215821 | 75 | 218 | 2.6 | 8.7 | 0.00 | 0.00 | 0.00 | 34 | 1011.8 |
| 20260507215319 | 74 | 130 | 0.0 | 8.7 | 0.00 | 0.00 | 0.00 | 37 | 1011.6 |
| 20260507214816 | 74 | 166 | 5.2 | 7.8 | 0.00 | 0.00 | 0.00 | 35 | 1011.8 |
| 20260507214313 | 75 | 180 | 4.3 | 7.8 | 0.00 | 0.00 | 0.00 | 35 | 1011.5 |
| 20260507213808 | 74 | 140 | 2.6 | 7.0 | 0.00 | 0.00 | 0.00 | 34 | 1012.1 |
| 20260507213306 | 75 | 164 | 4.3 | 7.0 | 0.00 | 0.00 | 0.00 | 35 | 1012.1 |
| 20260507212802 | 75 | 200 | 6.1 | 9.6 | 0.00 | 0.00 | 0.00 | 36 | 1012.3 |
| 20260507212258 | 74 | 167 | 4.3 | 5.2 | 0.00 | 0.00 | 0.00 | 36 | 1012.2 |
| 20260507211755 | 73 | 86 | 4.3 | 4.3 | 0.00 | 0.00 | 0.00 | 37 | 1012.2 |
| 20260507211251 | 73 | 175 | 7.8 | 11.3 | 0.00 | 0.00 | 0.00 | 37 | 1012.3 |
| 20260507210748 | 73 | 138 | 2.6 | 6.1 | 0.00 | 0.00 | 0.00 | 37 | 1012.4 |
| 20260507210245 | 73 | 254 | 0.0 | 7.8 | 0.00 | 0.00 | 0.00 | 38 | 1012.5 |
| 20260507205742 | 73 | 176 | 3.5 | 7.8 | 0.00 | 0.00 | 0.00 | 36 | 1012.5 |
| 20260507205239 | 73 | 196 | 6.1 | 8.7 | 0.00 | 0.00 | 0.00 | 37 | 1013.0 |
| 20260507204735 | 73 | 157 | 1.7 | 6.1 | 0.00 | 0.00 | 0.00 | 38 | 1012.9 |
| 20260507204233 | 73 | 70 | 1.7 | 5.2 | 0.00 | 0.00 | 0.00 | 37 | 1012.7 |
| 20260507203730 | 73 | 150 | 3.5 | 7.8 | 0.00 | 0.00 | 0.00 | 36 | 1013.0 |
| 20260507203227 | 71 | 248 | 2.6 | 6.1 | 0.00 | 0.00 | 0.00 | 39 | 1013.4 |
| 20260507202724 | 72 | 219 | 2.6 | 4.3 | 0.00 | 0.00 | 0.00 | 38 | 1013.4 |
| 20260507202220 | 71 | 196 | 2.6 | 5.2 | 0.00 | 0.00 | 0.00 | 39 | 1013.4 |
| 20260507201714 | 71 | 170 | 6.1 | 9.6 | 0.00 | 0.00 | 0.00 | 39 | 1013.5 |
| 20260507201212 | 72 | 237 | 2.6 | 6.1 | 0.00 | 0.00 | 0.00 | 38 | 1013.7 |
| 20260507200708 | 71 | 282 | 1.7 | 4.3 | 0.00 | 0.00 | 0.00 | 39 | 1013.9 |
| 20260507200204 | 71 | 163 | 3.5 | 8.7 | 0.00 | 0.00 | 0.00 | 41 | 1013.8 |
| 20260507195701 | 71 | 163 | 2.6 | 4.3 | 0.00 | 0.00 | 0.00 | 40 | 1013.9 |
| 20260507195158 | 69 | 254 | 3.5 | 3.5 | 0.00 | 0.00 | 0.00 | 42 | 1014.2 |
| 20260507194655 | 69 | 161 | 6.1 | 8.7 | 0.00 | 0.00 | 0.00 | 41 | 1014.4 |
| 20260507194150 | 69 | 274 | 2.6 | 4.3 | 0.00 | 0.00 | 0.00 | 43 | 1014.2 |
| 20260507193647 | 68 | 270 | 0.9 | 5.2 | 0.00 | 0.00 | 0.00 | 44 | 1014.5 |
| 20260507193145 | 68 | 160 | 0.9 | 7.0 | 0.00 | 0.00 | 0.00 | 44 | 1014.6 |
| 20260507192640 | 68 | 172 | 1.7 | 4.3 | 0.00 | 0.00 | 0.00 | 44 | 1014.3 |
| 20260507192138 | 68 | 173 | 4.3 | 7.8 | 0.00 | 0.00 | 0.00 | 43 | 1014.9 |
| 20260507191633 | 68 | 250 | 0.0 | 5.2 | 0.00 | 0.00 | 0.00 | 44 | 1014.6 |
| 20260507191130 | 68 | 255 | 0.9 | 6.1 | 0.00 | 0.00 | 0.00 | 45 | 1014.9 |
| 20260507190627 | 68 | 233 | 3.5 | 7.8 | 0.00 | 0.00 | 0.00 | 45 | 1014.7 |
| 20260507190126 | 67 | 106 | 0.0 | 5.2 | 0.00 | 0.00 | 0.00 | 45 | 1015.3 |
| 20260507185625 | 68 | 222 | 4.3 | 7.0 | 0.00 | 0.00 | 0.00 | 45 | 1014.8 |
| 20260507185120 | 66 | 194 | 4.3 | 9.6 | 0.00 | 0.00 | 0.00 | 47 | 1015.1 |
| 20260507184619 | 67 | 212 | 2.6 | 7.8 | 0.00 | 0.00 | 0.00 | 45 | 1015.4 |
| 20260507184116 | 67 | 262 | 2.6 | 3.5 | 0.00 | 0.00 | 0.00 | 47 | 1015.4 |
| 20260507183612 | 66 | 236 | 4.3 | 5.2 | 0.00 | 0.00 | 0.00 | 47 | 1015.7 |
| 20260507183109 | 66 | 121 | 1.7 | 2.6 | 0.00 | 0.00 | 0.00 | 47 | 1015.6 |
| 20260507182605 | 64 | 225 | 1.7 | 6.1 | 0.00 | 0.00 | 0.00 | 49 | 1015.8 |
| 20260507182102 | 65 | 188 | 2.6 | 6.1 | 0.00 | 0.00 | 0.00 | 48 | 1015.8 |
| 20260507181559 | 65 | 151 | 0.9 | 3.5 | 0.00 | 0.00 | 0.00 | 49 | 1016.0 |
| 20260507181055 | 64 | 180 | 5.2 | 8.7 | 0.00 | 0.00 | 0.00 | 49 | 1016.2 |
| 20260507180551 | 65 | 33 | 1.7 | 4.3 | 0.00 | 0.00 | 0.00 | 48 | 1016.2 |
| 20260507180048 | 65 | 131 | 2.6 | 2.6 | 0.00 | 0.00 | 0.00 | 49 | 1016.1 |
| 20260507175544 | 66 | 121 | 0.0 | 2.6 | 0.00 | 0.00 | 0.00 | 47 | 1016.5 |
| 20260507175042 | 65 | 15 | 1.7 | 5.2 | 0.00 | 0.00 | 0.00 | 48 | 1016.3 |
| 20260507174539 | 63 | 23 | 3.5 | 3.5 | 0.00 | 0.00 | 0.00 | 50 | 1016.5 |
| 20260507174037 | 64 | 79 | 2.6 | 8.7 | 0.00 | 0.00 | 0.00 | 50 | 1016.6 |
| 20260507173533 | 62 | 195 | 1.7 | 8.7 | 0.00 | 0.00 | 0.00 | 51 | 1016.9 |
| 20260507173031 | 62 | 232 | 0.0 | 6.1 | 0.00 | 0.00 | 0.00 | 52 | 1016.7 |
| 20260507172526 | 62 | 259 | 6.1 | 6.1 | 0.00 | 0.00 | 0.00 | 52 | 1016.9 |
| 20260507172024 | 64 | 210 | 1.7 | 4.3 | 0.00 | 0.00 | 0.00 | 49 | 1016.9 |
| 20260507171519 | 62 | 283 | 1.7 | 4.3 | 0.00 | 0.00 | 0.00 | 52 | 1017.0 |
| 20260507171017 | 62 | 21 | 1.7 | 5.2 | 0.00 | 0.00 | 0.00 | 52 | 1017.2 |
| 20260507170513 | 62 | 346 | 0.0 | 2.6 | 0.00 | 0.00 | 0.00 | 52 | 1017.2 |
| 20260507170010 | 61 | 233 | 2.6 | 6.1 | 0.00 | 0.00 | 0.00 | 53 | 1017.2 |
| 20260507165506 | 61 | 315 | 1.7 | 6.1 | 0.00 | 0.00 | 0.00 | 53 | 1017.4 |
| 20260507165003 | 62 | 21 | 0.0 | 3.5 | 0.00 | 0.00 | 0.00 | 53 | 1017.4 |
| 20260507164459 | 61 | 15 | 0.9 | 3.5 | 0.00 | 0.00 | 0.00 | 52 | 1017.7 |
| 20260507163955 | 60 | 31 | 6.1 | 7.8 | 0.00 | 0.00 | 0.00 | 55 | 1017.6 |
| 20260507163453 | 61 | 36 | 1.7 | 2.6 | 0.00 | 0.00 | 0.00 | 53 | 1017.9 |
| 20260507162950 | 59 | 63 | 0.0 | 4.3 | 0.00 | 0.00 | 0.00 | 55 | 1017.7 |
| 20260507162445 | 60 | 353 | 1.7 | 3.5 | 0.00 | 0.00 | 0.00 | 54 | 1017.7 |
| 20260507161943 | 60 | 354 | 2.6 | 4.3 | 0.00 | 0.00 | 0.00 | 53 | 1017.8 |
| 20260507161439 | 61 | 145 | 0.0 | 4.3 | 0.00 | 0.00 | 0.00 | 52 | 1018.2 |
| 20260507160936 | 60 | 96 | 1.7 | 3.5 | 0.00 | 0.00 | 0.00 | 54 | 1018.0 |
| 20260507160432 | 57 | 22 | 2.6 | 7.0 | 0.00 | 0.00 | 0.00 | 57 | 1018.4 |
| 20260507155927 | 58 | 78 | 1.7 | 4.3 | 0.00 | 0.00 | 0.00 | 56 | 1018.3 |
| 20260507155424 | 57 | 31 | 5.2 | 6.1 | 0.00 | 0.00 | 0.00 | 57 | 1018.5 |
| 20260507154921 | 58 | 71 | 0.9 | 7.0 | 0.00 | 0.00 | 0.00 | 57 | 1018.4 |
| 20260507154417 | 57 | 38 | 3.5 | 5.2 | 0.00 | 0.00 | 0.00 | 56 | 1018.3 |
| 20260507153915 | 57 | 157 | 0.0 | 7.0 | 0.00 | 0.00 | 0.00 | 58 | 1018.5 |
| 20260507153411 | 56 | 32 | 4.3 | 7.8 | 0.00 | 0.00 | 0.00 | 57 | 1018.9 |
| 20260507152908 | 55 | 11 | 4.3 | 8.7 | 0.00 | 0.00 | 0.00 | 58 | 1018.8 |
| 20260507152404 | 56 | 41 | 1.7 | 6.1 | 0.00 | 0.00 | 0.00 | 58 | 1019.0 |
| 20260507151900 | 56 | 45 | 5.2 | 7.8 | 0.00 | 0.00 | 0.00 | 58 | 1018.6 |
| 20260507151356 | 55 | 15 | 2.6 | 7.8 | 0.00 | 0.00 | 0.00 | 58 | 1018.9 |
| 20260507150854 | 55 | 32 | 4.3 | 7.8 | 0.00 | 0.00 | 0.00 | 60 | 1018.8 |
| 20260507150350 | 53 | 9 | 6.1 | 9.6 | 0.00 | 0.00 | 0.00 | 61 | 1018.8 |
| 20260507145846 | 54 | 43 | 4.3 | 7.8 | 0.00 | 0.00 | 0.00 | 62 | 1019.2 |
| 20260507145343 | 53 | 29 | 7.0 | 8.7 | 0.00 | 0.00 | 0.00 | 62 | 1019.1 |
| 20260507144840 | 53 | 33 | 2.6 | 8.7 | 0.00 | 0.00 | 0.00 | 62 | 1019.3 |
| 20260507144337 | 52 | 17 | 6.1 | 8.7 | 0.00 | 0.00 | 0.00 | 63 | 1018.9 |
| 20260507143834 | 53 | 20 | 7.8 | 10.4 | 0.00 | 0.00 | 0.00 | 63 | 1019.2 |
| 20260507143331 | 52 | 53 | 2.6 | 9.6 | 0.00 | 0.00 | 0.00 | 64 | 1019.3 |
| 20260507142827 | 52 | 15 | 6.1 | 10.4 | 0.00 | 0.00 | 0.00 | 64 | 1019.3 |
| 20260507142323 | 51 | 15 | 6.1 | 9.6 | 0.00 | 0.00 | 0.00 | 64 | 1019.2 |
| 20260507141820 | 51 | 40 | 8.7 | 10.4 | 0.00 | 0.00 | 0.00 | 65 | 1019.1 |
| 20260507141317 | 51 | 349 | 5.2 | 9.6 | 0.00 | 0.00 | 0.00 | 66 | 1019.2 |
| 20260507140813 | 51 | 45 | 6.1 | 9.6 | 0.00 | 0.00 | 0.00 | 66 | 1019.2 |
| 20260507140310 | 51 | 21 | 4.3 | 12.2 | 0.00 | 0.00 | 0.00 | 66 | 1019.2 |
| 20260507135808 | 51 | 32 | 7.8 | 10.4 | 0.00 | 0.00 | 0.00 | 66 | 1019.4 |
| 20260507135306 | 51 | 19 | 7.8 | 12.2 | 0.00 | 0.00 | 0.00 | 66 | 1019.3 |
| 20260507134802 | 51 | 21 | 6.1 | 12.2 | 0.00 | 0.00 | 0.00 | 66 | 1019.1 |
| 20260507134258 | 51 | 27 | 9.6 | 9.6 | 0.00 | 0.00 | 0.00 | 66 | 1019.4 |
| 20260507133754 | 51 | 30 | 8.7 | 13.9 | 0.00 | 0.00 | 0.00 | 65 | 1019.1 |
| 20260507133250 | 51 | 35 | 9.6 | 13.0 | 0.00 | 0.00 | 0.00 | 66 | 1019.2 |
| 20260507132748 | 51 | 33 | 9.6 | 12.2 | 0.00 | 0.00 | 0.00 | 66 | 1019.2 |
| 20260507132245 | 51 | 35 | 5.2 | 12.2 | 0.00 | 0.00 | 0.00 | 66 | 1019.1 |
| 20260507131742 | 51 | 29 | 4.3 | 11.3 | 0.00 | 0.00 | 0.00 | 66 | 1019.2 |
| 20260507131239 | 51 | 8 | 5.2 | 9.6 | 0.00 | 0.00 | 0.00 | 65 | 1019.1 |
| 20260507130735 | 51 | 27 | 7.0 | 11.3 | 0.00 | 0.00 | 0.00 | 65 | 1019.1 |
| 20260507130233 | 51 | 10 | 7.0 | 13.0 | 0.00 | 0.00 | 0.00 | 66 | 1019.0 |
| 20260507125732 | 51 | 36 | 7.8 | 11.3 | 0.00 | 0.00 | 0.00 | 65 | 1019.0 |
| 20260507125229 | 51 | 0 | 9.6 | 12.2 | 0.00 | 0.00 | 0.00 | 66 | 1018.9 |
| 20260507124725 | 51 | 20 | 7.8 | 10.4 | 0.00 | 0.00 | 0.00 | 66 | 1019.0 |
| 20260507124222 | 50 | 0 | 1.7 | 11.3 | 0.00 | 0.00 | 0.00 | 66 | 1018.9 |
| 20260507123721 | 50 | 18 | 4.3 | 11.3 | 0.00 | 0.00 | 0.00 | 66 | 1019.0 |
| 20260507123218 | 50 | 30 | 7.8 | 12.2 | 0.00 | 0.00 | 0.00 | 67 | 1018.9 |
| 20260507122713 | 50 | 5 | 5.2 | 9.6 | 0.00 | 0.00 | 0.00 | 67 | 1018.8 |
| 20260507122209 | 50 | 27 | 7.0 | 11.3 | 0.00 | 0.00 | 0.00 | 67 | 1018.8 |
| 20260507121705 | 50 | 33 | 7.0 | 13.0 | 0.00 | 0.00 | 0.00 | 67 | 1018.4 |
| 20260507121201 | 50 | 22 | 6.1 | 12.2 | 0.00 | 0.00 | 0.00 | 67 | 1018.8 |
| 20260507120657 | 50 | 20 | 6.1 | 11.3 | 0.00 | 0.00 | 0.00 | 67 | 1018.5 |
| 20260507120154 | 50 | 10 | 9.6 | 12.2 | 0.00 | 0.00 | 0.00 | 67 | 1018.5 |
| 20260507115650 | 50 | 20 | 9.6 | 14.8 | 0.00 | 0.00 | 0.00 | 67 | 1018.5 |
| 20260507115146 | 50 | 14 | 10.4 | 14.8 | 0.00 | 0.00 | 0.00 | 68 | 1018.6 |
| 20260507114642 | 50 | 14 | 6.1 | 13.0 | 0.00 | 0.00 | 0.00 | 68 | 1018.5 |
| 20260507114140 | 50 | 0 | 9.6 | 14.8 | 0.00 | 0.00 | 0.00 | 68 | 1018.8 |
| 20260507113637 | 50 | 34 | 10.4 | 15.6 | 0.00 | 0.00 | 0.00 | 68 | 1018.4 |
| 20260507113134 | 50 | 0 | 7.8 | 13.9 | 0.00 | 0.00 | 0.00 | 68 | 1018.6 |
| 20260507112632 | 50 | 12 | 10.4 | 14.8 | 0.00 | 0.00 | 0.00 | 68 | 1018.6 |
| 20260507112128 | 50 | 27 | 7.8 | 14.8 | 0.00 | 0.00 | 0.00 | 68 | 1018.6 |
| 20260507111625 | 50 | 24 | 12.2 | 13.9 | 0.00 | 0.00 | 0.00 | 68 | 1018.4 |
| 20260507111122 | 50 | 0 | 12.2 | 13.9 | 0.00 | 0.00 | 0.00 | 68 | 1018.6 |
| 20260507110618 | 50 | 356 | 9.6 | 15.6 | 0.00 | 0.00 | 0.00 | 68 | 1018.4 |
| 20260507110115 | 49 | 28 | 7.0 | 13.0 | 0.00 | 0.00 | 0.00 | 69 | 1018.4 |
| 20260507105612 | 49 | 22 | 7.8 | 13.0 | 0.00 | 0.00 | 0.00 | 69 | 1018.4 |
| 20260507105108 | 49 | 2 | 9.6 | 12.2 | 0.00 | 0.00 | 0.00 | 69 | 1018.3 |
| 20260507104606 | 49 | 10 | 7.8 | 12.2 | 0.00 | 0.00 | 0.00 | 69 | 1018.3 |
| 20260507104102 | 49 | 6 | 9.6 | 13.0 | 0.00 | 0.00 | 0.00 | 69 | 1018.4 |
| 20260507103558 | 49 | 355 | 8.7 | 10.4 | 0.00 | 0.00 | 0.00 | 69 | 1018.4 |
| 20260507103055 | 49 | 18 | 7.8 | 11.3 | 0.00 | 0.00 | 0.00 | 68 | 1018.1 |
| 20260507102551 | 49 | 7 | 10.4 | 13.0 | 0.00 | 0.00 | 0.00 | 68 | 1018.3 |
| 20260507102047 | 50 | 354 | 5.2 | 11.3 | 0.00 | 0.00 | 0.00 | 68 | 1018.3 |
| 20260507101543 | 50 | 0 | 10.4 | 12.2 | 0.00 | 0.00 | 0.00 | 68 | 1018.0 |
| 20260507101039 | 50 | 6 | 12.2 | 13.9 | 0.00 | 0.00 | 0.00 | 68 | 1018.0 |